TimeCDT,TemperatureF,Dew PointF,Humidity,Sea Level PressureIn,VisibilityMPH,Wind Direction,Wind SpeedMPH,Gust SpeedMPH,PrecipitationIn,Events,Conditions,WindDirDegrees,DateUTC
12:15 AM,39.4,34.5,83,30.02,10.0,SW,10.4,-,N/A,,Clear,220,2012-10-08 05:15:00
12:35 AM,39.2,34.3,83,30.02,10.0,SW,9.2,-,N/A,,Clear,220,2012-10-08 05:35:00
12:55 AM,40.1,34.9,82,30.02,10.0,SW,10.4,-,N/A,,Clear,220,2012-10-08 05:55:00
1:15 AM,40.1,34.9,82,30.01,10.0,SW,9.2,-,N/A,,Clear,230,2012-10-08 06:15:00
1:35 AM,40.6,34.9,80,30.01,10.0,SW,8.1,-,N/A,,Clear,230,2012-10-08 06:35:00
1:55 AM,38.8,34.2,83,30.00,10.0,SW,8.1,-,N/A,,Clear,220,2012-10-08 06:55:00
2:15 AM,37.6,33.4,85,30.00,10.0,SSW,6.9,-,N/A,,Clear,210,2012-10-08 07:15:00
2:35 AM,37.4,33.4,86,30.00,10.0,SW,6.9,-,N/A,,Clear,220,2012-10-08 07:35:00
2:55 AM,36.5,32.9,87,30.00,10.0,SW,5.8,-,N/A,,Clear,220,2012-10-08 07:55:00
3:15 AM,37.8,33.1,83,29.99,10.0,SW,8.1,-,N/A,,Clear,220,2012-10-08 08:15:00
3:35 AM,36.5,32.0,84,29.98,10.0,SSW,6.9,-,N/A,,Clear,210,2012-10-08 08:35:00
3:55 AM,36.0,32.0,86,29.98,10.0,SW,8.1,-,N/A,,Clear,220,2012-10-08 08:55:00
4:15 AM,37.8,32.5,81,29.97,10.0,SW,9.2,-,N/A,,Clear,230,2012-10-08 09:15:00
4:35 AM,35.6,31.8,86,29.97,10.0,SW,5.8,-,N/A,,Clear,230,2012-10-08 09:35:00
4:55 AM,36.1,31.1,82,29.97,10.0,SW,5.8,-,N/A,,Clear,230,2012-10-08 09:55:00
5:15 AM,35.4,30.4,82,29.97,10.0,SW,3.5,-,N/A,,Clear,230,2012-10-08 10:15:00
5:35 AM,34.9,28.9,79,29.96,10.0,WSW,4.6,-,N/A,,Clear,250,2012-10-08 10:35:00
5:55 AM,35.4,27.3,72,29.96,10.0,WSW,8.1,-,N/A,,Clear,250,2012-10-08 10:55:00
6:15 AM,37.4,26.4,65,29.96,10.0,West,9.2,-,N/A,,Clear,260,2012-10-08 11:15:00
6:35 AM,37.6,25.7,62,29.95,10.0,WSW,9.2,-,N/A,,Clear,250,2012-10-08 11:35:00
6:55 AM,38.3,25.7,61,29.95,10.0,WSW,10.4,-,N/A,,Clear,250,2012-10-08 11:55:00
7:15 AM,37.6,25.7,62,29.94,10.0,WSW,6.9,-,N/A,,Clear,250,2012-10-08 12:15:00
7:35 AM,37.4,25.7,63,29.94,10.0,WSW,5.8,-,N/A,,Clear,240,2012-10-08 12:35:00
7:55 AM,37.4,25.9,63,29.94,10.0,SW,6.9,-,N/A,,Clear,230,2012-10-08 12:55:00
8:15 AM,38.1,25.7,61,29.94,10.0,WSW,8.1,-,N/A,,Clear,240,2012-10-08 13:15:00
8:35 AM,38.1,26.4,63,29.94,10.0,SW,9.2,-,N/A,,Clear,220,2012-10-08 13:35:00
8:55 AM,39.6,27.7,62,29.94,10.0,WSW,6.9,-,N/A,,Clear,240,2012-10-08 13:55:00
9:15 AM,41.4,28.9,61,29.94,10.0,SW,9.2,-,N/A,,Clear,230,2012-10-08 14:15:00
9:35 AM,43.7,30.4,59,29.94,10.0,WSW,9.2,-,N/A,,Clear,240,2012-10-08 14:35:00
9:55 AM,46.8,30.7,54,29.93,10.0,WSW,12.7,-,N/A,,Clear,240,2012-10-08 14:55:00
10:15 AM,49.8,30.6,48,29.93,10.0,WSW,16.1,21.9,N/A,,Clear,250,2012-10-08 15:15:00
10:35 AM,52.0,31.3,45,29.93,10.0,West,12.7,-,N/A,,Clear,260,2012-10-08 15:35:00
10:55 AM,53.4,31.5,43,29.92,10.0,WSW,10.4,-,N/A,,Clear,250,2012-10-08 15:55:00
11:15 AM,55.6,32.0,41,29.92,10.0,WSW,11.5,-,N/A,,Clear,240,2012-10-08 16:15:00
11:35 AM,56.7,32.0,39,29.91,10.0,WSW,11.5,-,N/A,,Clear,240,2012-10-08 16:35:00
11:55 AM,58.8,31.5,36,29.91,10.0,WSW,10.4,-,N/A,,Clear,250,2012-10-08 16:55:00
12:15 PM,59.5,31.3,34,29.90,10.0,WSW,10.4,-,N/A,,Clear,240,2012-10-08 17:15:00
12:55 PM,64.4,30.6,28,29.89,10.0,SW,9.2,-,N/A,,Clear,230,2012-10-08 17:55:00
1:15 PM,66.4,29.5,25,29.88,10.0,WSW,9.2,-,N/A,,Clear,240,2012-10-08 18:15:00
1:35 PM,68.5,28.8,23,29.87,10.0,WSW,9.2,16.1,N/A,,Clear,240,2012-10-08 18:35:00
1:55 PM,70.0,25.2,19,29.85,10.0,SW,11.5,17.3,N/A,,Clear,230,2012-10-08 18:55:00
2:15 PM,71.6,21.9,15,29.84,10.0,WSW,11.5,20.7,N/A,,Clear,240,2012-10-08 19:15:00
2:35 PM,72.3,20.7,14,29.83,10.0,WSW,16.1,21.9,N/A,,Clear,240,2012-10-08 19:35:00
2:55 PM,73.2,21.2,14,29.82,10.0,West,17.3,20.7,N/A,,Clear,260,2012-10-08 19:55:00
3:15 PM,73.0,20.8,14,29.81,10.0,WSW,15.0,-,N/A,,Clear,250,2012-10-08 20:15:00
3:35 PM,74.3,21.2,14,29.81,10.0,WSW,13.8,20.7,N/A,,Clear,250,2012-10-08 20:35:00
3:55 PM,74.5,20.7,13,29.80,10.0,WSW,13.8,-,N/A,,Clear,250,2012-10-08 20:55:00
4:15 PM,74.5,19.8,13,29.80,10.0,WSW,13.8,-,N/A,,Clear,240,2012-10-08 21:15:00
4:35 PM,75.2,19.9,13,29.79,10.0,WSW,12.7,-,N/A,,Clear,250,2012-10-08 21:35:00
4:55 PM,75.4,19.2,12,29.79,10.0,WSW,12.7,16.1,N/A,,Clear,250,2012-10-08 21:55:00
5:15 PM,74.5,18.7,12,29.79,10.0,WSW,11.5,18.4,N/A,,Clear,250,2012-10-08 22:15:00
5:35 PM,72.9,19.0,13,29.79,10.0,West,13.8,-,N/A,,Clear,270,2012-10-08 22:35:00
5:55 PM,71.8,18.9,13,29.79,10.0,West,9.2,-,N/A,,Clear,280,2012-10-08 22:55:00
6:15 PM,69.4,19.9,15,29.79,10.0,West,6.9,-,N/A,,Clear,270,2012-10-08 23:15:00
6:35 PM,68.0,20.1,16,29.79,10.0,West,4.6,-,N/A,,Clear,270,2012-10-08 23:35:00
6:55 PM,66.4,21.7,18,29.79,10.0,West,4.6,-,N/A,,Clear,270,2012-10-08 23:55:00
7:35 PM,58.8,23.7,26,29.79,10.0,SW,3.5,-,N/A,,Clear,220,2012-10-09 00:35:00
7:55 PM,58.8,23.5,26,29.79,10.0,SSW,3.5,-,N/A,,Clear,210,2012-10-09 00:55:00
8:15 PM,57.4,23.4,27,29.79,10.0,SW,4.6,-,N/A,,Clear,220,2012-10-09 01:15:00
8:35 PM,57.2,23.5,27,29.79,10.0,SW,4.6,-,N/A,,Clear,220,2012-10-09 01:35:00
8:55 PM,57.9,23.0,26,29.80,10.0,SW,4.6,-,N/A,,Clear,230,2012-10-09 01:55:00
9:15 PM,56.1,23.0,28,29.80,10.0,SW,5.8,-,N/A,,Clear,220,2012-10-09 02:15:00
9:35 PM,53.1,23.4,32,29.81,10.0,WSW,3.5,-,N/A,,Clear,250,2012-10-09 02:35:00
9:55 PM,52.0,23.4,33,29.81,10.0,SSW,8.1,-,N/A,,Clear,210,2012-10-09 02:55:00
10:15 PM,54.3,22.6,29,29.81,10.0,SW,6.9,-,N/A,,Clear,220,2012-10-09 03:15:00
10:55 PM,53.2,23.9,32,29.83,10.0,SW,4.6,-,N/A,,Clear,230,2012-10-09 03:55:00
11:15 PM,53.6,25.7,34,29.83,10.0,WSW,3.5,-,N/A,,Clear,240,2012-10-09 04:15:00
11:35 PM,55.2,27.3,34,29.83,10.0,WNW,6.9,-,N/A,,Clear,290,2012-10-09 04:35:00